View from above orbital plane
|
View from above satellite
|
Ground track
|
The orbit data is extracted from the following two-line orbital elements,
1 13242U 82051B 21058.36757453 .00000058 00000-0 28976-4 0 9993
2 13242 74.0440 33.7749 0026263 262.9888 96.8277 14.36010499 27283
Epoch (UTC): | 27 February 2021 08:49:18 |
Eccentricity: | 0.0026263 |
inclination: | 74.0440° |
perigee height: | 753 km |
apogee height: | 790 km |
right ascension of ascending node: | 33.7749° |
argument of perigee: | 262.9888° |
revolutions per day: | 14.36010499 |
mean anomaly at epoch: | 96.8277° |
orbit number at epoch: | 2728 |
The dashed part of the orbit path shows where the satellite is in the earth's shadow,
|
|